Find Starlink 38157

NORAD ID: 100263 Int'l Des: 2026-181 Owner: SPXS Country: US Constellation: starlink operational

現在のビュー

3D地球を読み込み中...

About Starlink 38157

Starlink 38157 (NORAD 100263) is a starlink constellation satellite launched Aug 8, 2026 by SPXS of US. with a mass of 575.00 kg.

次回通過

Passes for default location (London). Set your location on the main map for personalized predictions.

高度履歴

Loading altitude history...

軌道要素

1 A0263U 26181T 26249.64297107 .00168318 00000-0 11056-2 0 9990
2 A0263 97.2851 292.6275 0000861 92.9243 267.2121 15.75223589 5780
Epoch: Sep 6, 2026 • Age: 5 hours

現在のステータス

高度 348.4 km
遠地点 / 近地点 N/A
速度 7.70 km/s
衛星直下点 -8.08°S, 173.87°E
打ち上げ日 Aug 8, 2026
運用期間 29 days
タイプ internet

技術仕様

分類 Payload
質量 575.00 kg
乾燥質量 530.00 kg
総質量 575.00 kg
長さ 0.30 m
直径 4.10 m
スパン 29.00 m
形状 Box + pan
製造者 SPXS
バスタイプ Starlink V2MO
フェーズステータス In Orbit
所有者/国 SPXS/US

Most Searched